WetterOnline ( http://www.wetteronline.at )

Wetter aktuell Wien

Aktuelles Wetter: Wien / Hohe Warte (200m)

6-stündlich | Neueste Meldungen
Ortszeit Temperatur Wetter
Mi, 23.01. 13:00 -5.0° C leichter Schneefall
Mi, 23.01. 7:00 -6.8° C bedeckt
Mi, 23.01. 1:00 -5.2° C -
Di, 22.01. 19:00 -4.3° C bedeckt
Di, 22.01. 13:00 -5.5° C bedeckt
Di, 22.01. 7:00 -8.0° C wolkenlos
Di, 22.01. 1:00 -5.9° C wolkenlos
Mo, 21.01. 19:00 -3.2° C wolkenlos
Ortszeit Temperatur Wetter
Mi, 23.01. 18:00 -3.9° C leichter Schneefall
Mi, 23.01. 17:00 -4.1° C leichter Schneefall
Mi, 23.01. 16:00 -4.1° C leichter Schneefall
Mi, 23.01. 15:00 -4.3° C leichter Schneefall
Mi, 23.01. 14:00 -4.4° C bedeckt
Mi, 23.01. 13:00 -5.0° C leichter Schneefall
Ortszeit Relative Feuchte Sichtweite
Mi, 23.01. 13:00 84% 3.6 km
Mi, 23.01. 7:00 94% 2.0 km
Mi, 23.01. 1:00 84% -
Di, 22.01. 19:00 92% 2.5 km
Di, 22.01. 13:00 91% 2.1 km
Di, 22.01. 7:00 92% 6 km
Di, 22.01. 1:00 89% 9 km
Mo, 21.01. 19:00 77% 9 km
Ortszeit Relative Feuchte Sichtweite
Mi, 23.01. 18:00 89% 3.9 km
Mi, 23.01. 17:00 87% 3.9 km
Mi, 23.01. 16:00 86% 3.9 km
Mi, 23.01. 15:00 85% 3.6 km
Mi, 23.01. 14:00 83% 3.6 km
Mi, 23.01. 13:00 84% 3.6 km
Ortszeit Niederschlagsmenge Niederschlagsart
Mi, 23.01. 13:00 0.7 l/m2 in 6 Std. Schnee
Mi, 23.01. 7:00 0.0 l/m2 in 24 Std. -
Mi, 23.01. 1:00 0.0 l/m2 in 6 Std. -
Di, 22.01. 19:00 0.1 l/m2 in 12 Std. -
Di, 22.01. 13:00 0.0 l/m2 in 24 Std. -
Di, 22.01. 7:00 0.0 l/m2 in 24 Std. -
Di, 22.01. 1:00 0.0 l/m2 in 24 Std. -
Mo, 21.01. 19:00 0.0 l/m2 in 24 Std. -
Ortszeit Niederschlagsmenge Niederschlagsart
Mi, 23.01. 18:00 0.1 l/m2 in 1 Std. Schnee
Mi, 23.01. 17:00 0.1 l/m2 in 1 Std. Schnee
Mi, 23.01. 16:00 keine Meldung -
Mi, 23.01. 15:00 0.1 l/m2 in 1 Std. Schnee
Mi, 23.01. 14:00 0.1 l/m2 in 1 Std. Schnee
Mi, 23.01. 13:00 keine Meldung -
Ortszeit Stärke Spitze Richtung
km/h Bft. km/h Grad Sektor
Mi, 23.01. 13:00 7 2 - 60° NO
Mi, 23.01. 7:00 7 2 - 50° NO
Mi, 23.01. 1:00 7 2 - 140° SO
Di, 22.01. 19:00 4 1 - 60° NO
Di, 22.01. 13:00 7 2 - 70° O
Di, 22.01. 7:00 0 0 - - -
Di, 22.01. 1:00 0 0 - - -
Mo, 21.01. 19:00 4 1 - 20° N
Ortszeit Stärke Spitze Richtung
km/h Bft. km/h Grad Sektor
Mi, 23.01. 18:00 11 2 - 80° O
Mi, 23.01. 17:00 14 3 - 80° O
Mi, 23.01. 16:00 11 2 - 90° O
Mi, 23.01. 15:00 11 2 - 90° O
Mi, 23.01. 14:00 11 2 - 70° O
Mi, 23.01. 13:00 7 2 - 60° NO
Ortszeit Untergrenze Bedeckung Gattung
total tief tief mittel hoch
Mi, 23.01. 13:00 240 m 8/8 8/8 St - -
Mi, 23.01. 7:00 90 m 8/8 8/8 St - -
Mi, 23.01. 1:00 - - - - - -
Di, 22.01. 19:00 180 m 8/8 8/8 St - -
Di, 22.01. 13:00 240 m 8/8 8/8 St - -
Di, 22.01. 7:00 - 0/8 0/8 - - -
Di, 22.01. 1:00 - 0/8 0/8 - - -
Mo, 21.01. 19:00 - 0/8 0/8 - - -
Ortszeit Bedeckungsgrad in Achtel und Wolkenuntergrenze
Mi, 23.01. 18:00 8(240m)
Mi, 23.01. 17:00 8(240m)
Mi, 23.01. 16:00 8(270m)
Mi, 23.01. 15:00 8(240m)
Mi, 23.01. 14:00 8(240m)
Mi, 23.01. 13:00 8(240m)
Ortszeit Luftdruck NN (hPa) Tendenz (hPa in 3 Std.)
Mi, 23.01. 13:00 1003 - 1,5
Mi, 23.01. 7:00 1005 - 0,8
Mi, 23.01. 1:00 1008 - 2,0
Di, 22.01. 19:00 1011 - 1,6
Di, 22.01. 13:00 1015 - 2,2
Di, 22.01. 7:00 1018 - 1,2
Di, 22.01. 1:00 1021 - 0,6
Mo, 21.01. 19:00 1021 - 0,2
Ortszeit Luftdruck NN (hPa) Tendenz (hPa in 3 Std.)
Mi, 23.01. 18:00 1003 + 0,9
Mi, 23.01. 17:00 1002 + 0,4
Mi, 23.01. 16:00 1002 - 0,6
Mi, 23.01. 15:00 1002 - 1,3
Mi, 23.01. 14:00 1002 - 1,8
Mi, 23.01. 13:00 1003 - 1,5
Ortszeit Schneehöhe (cm)
Mi, 23.01. 13:00 -
Mi, 23.01. 7:00 -
Mi, 23.01. 1:00 -
Di, 22.01. 19:00 -
Di, 22.01. 13:00 -
Di, 22.01. 7:00 -
Di, 22.01. 1:00 -
Mo, 21.01. 19:00 -
Ortszeit Schneehöhe (cm)
Mi, 23.01. 18:00 -
Mi, 23.01. 17:00 -
Mi, 23.01. 16:00 -
Mi, 23.01. 15:00 -
Mi, 23.01. 14:00 -
Mi, 23.01. 13:00 -
Link zu dieser Seite / Seite empfehlen

Das Wetter in ...